TimeEDT,TemperatureF,Dew PointF,Humidity,Sea Level PressureIn,VisibilityMPH,Wind Direction,Wind SpeedMPH,Gust SpeedMPH,PrecipitationIn,Events,Conditions,WindDirDegrees,DateUTC
12:54 AM,34.0,21.0,59,30.14,10.0,WSW,3.5,-,N/A,,Clear,240,2014-04-07 04:54:00
1:54 AM,28.9,21.0,72,30.17,10.0,NW,4.6,-,N/A,,Clear,310,2014-04-07 05:54:00
2:54 AM,28.9,21.0,72,30.17,10.0,Calm,Calm,-,N/A,,Clear,0,2014-04-07 06:54:00
3:54 AM,26.1,21.0,81,30.17,10.0,WNW,4.6,-,N/A,,Clear,290,2014-04-07 07:54:00
4:54 AM,26.1,21.0,81,30.20,10.0,Calm,Calm,-,N/A,,Clear,0,2014-04-07 08:54:00
5:54 AM,26.1,21.0,81,30.21,10.0,SSE,3.5,-,N/A,,Clear,160,2014-04-07 09:54:00
6:54 AM,26.1,21.9,84,30.23,10.0,Calm,Calm,-,N/A,,Clear,0,2014-04-07 10:54:00
7:54 AM,34.0,23.0,64,30.23,10.0,Calm,Calm,-,N/A,,Clear,0,2014-04-07 11:54:00
8:54 AM,42.1,24.1,49,30.23,10.0,Calm,Calm,-,N/A,,Clear,0,2014-04-07 12:54:00
9:54 AM,46.9,25.0,42,30.24,10.0,NE,3.5,-,N/A,,Clear,50,2014-04-07 13:54:00
10:54 AM,52.0,23.0,32,30.21,10.0,East,3.5,-,N/A,,Clear,90,2014-04-07 14:54:00
11:54 AM,55.9,24.1,29,30.19,10.0,South,6.9,-,N/A,,Clear,180,2014-04-07 15:54:00
12:54 PM,57.0,24.1,28,30.18,10.0,North,-9999.0,-,N/A,,Clear,0,2014-04-07 16:54:00
1:54 PM,55.9,23.0,28,30.17,10.0,SSE,6.9,-,N/A,,Clear,150,2014-04-07 17:54:00
2:54 PM,55.0,23.0,29,30.15,10.0,South,6.9,-,N/A,,Clear,170,2014-04-07 18:54:00
4:54 PM,54.0,23.0,30,30.12,10.0,SE,6.9,-,N/A,,Clear,140,2014-04-07 20:54:00
5:54 PM,51.1,25.0,36,30.10,10.0,SE,8.1,-,N/A,,Clear,130,2014-04-07 21:54:00
6:54 PM,48.9,24.1,38,30.10,10.0,Calm,Calm,-,N/A,,Clear,0,2014-04-07 22:54:00
7:54 PM,44.1,24.1,45,30.09,10.0,Calm,Calm,-,N/A,,Clear,0,2014-04-07 23:54:00
8:54 PM,41.0,25.0,53,30.06,10.0,ESE,3.5,-,N/A,,Overcast,120,2014-04-08 00:54:00
9:54 PM,43.0,27.0,53,30.05,10.0,SSE,3.5,-,N/A,,Overcast,150,2014-04-08 01:54:00
10:54 PM,41.0,30.9,67,30.04,9.0,SW,4.6,18.4,0.00,Rain,Light Rain,220,2014-04-08 02:54:00
11:54 PM,37.0,36.0,96,30.01,3.0,Calm,Calm,-,0.11,Rain,Rain,0,2014-04-08 03:54:00